MST,Max TemperatureF,Mean TemperatureF,Min TemperatureF,Max Dew PointF,MeanDew PointF,Min DewpointF,Max Humidity, Mean Humidity, Min Humidity, Max Sea Level PressureIn, Mean Sea Level PressureIn, Min Sea Level PressureIn, Max VisibilityMiles, Mean VisibilityMiles, Min VisibilityMiles, Max Wind SpeedMPH, Mean Wind SpeedMPH, Max Gust SpeedMPH,PrecipitationIn, CloudCover, Events, WindDirDegrees
2013-2-1,54,37,19,35,25,16,92,60,28,30.27,30.14,30.01,10,9,2,26,9,35,T,4,Rain,263
2013-2-2,53,40,26,27,23,19,85,56,26,30.35,30.28,30.16,10,10,10,29,12,36,0.00,0,,302
2013-2-3,53,36,19,24,21,15,84,56,28,30.31,30.06,29.90,10,10,10,20,9,28,0.00,0,,245
2013-2-4,57,41,24,23,19,13,75,47,18,30.04,29.94,29.83,10,10,10,15,8,18,0.00,0,,283
2013-2-5,55,42,28,26,23,21,75,52,29,30.09,30.00,29.89,10,10,10,15,8,20,0.00,0,,235
2013-2-6,65,45,24,28,24,21,81,50,19,30.02,29.87,29.74,10,10,10,18,9,24,0.00,2,,336
2013-2-7,53,40,26,30,21,14,92,56,20,30.21,30.15,30.04,10,10,10,18,10,23,0.00,1,,332
2013-2-8,57,39,20,24,21,14,74,52,29,30.17,29.97,29.75,10,10,6,32,16,38,0.00,0,,174
2013-2-9,57,39,21,36,25,16,92,59,25,29.78,29.54,29.39,10,8,2,28,14,38,0.11,4,Rain-Snow-Thunderstorm,252
2013-2-10,35,29,22,29,23,13,92,78,64,30.14,29.61,29.38,10,4,0,38,23,49,0.07,7,Fog-Snow,322
2013-2-11,32,24,15,17,12,8,74,61,47,30.25,30.20,30.16,10,10,10,16,9,,0.00,1,,280
2013-2-12,37,23,9,20,15,9,92,71,50,30.16,30.11,30.06,10,10,10,20,7,23,0.00,1,,298
2013-2-13,51,37,23,27,21,15,78,55,32,30.05,29.97,29.89,10,10,10,29,13,35,0.00,1,,300
2013-2-14,38,28,17,28,22,15,91,69,47,30.41,30.22,30.03,10,10,10,28,12,35,0.00,4,,324
2013-2-15,36,26,16,19,15,12,92,65,38,30.45,30.41,30.34,10,10,10,21,9,25,0.00,4,,301
2013-2-16,56,40,23,24,21,18,81,54,26,30.31,30.09,29.96,10,10,10,26,13,36,0.00,2,,283
2013-2-17,61,42,23,28,20,10,81,48,14,29.95,29.73,29.56,10,10,10,30,10,37,0.00,0,,281
2013-2-18,43,30,17,26,20,15,84,59,33,30.22,29.98,29.71,10,10,10,29,16,36,0.00,2,,335
2013-2-19,41,26,10,20,14,6,92,65,37,30.31,30.21,30.10,10,10,10,25,12,31,0.00,0,,136
2013-2-20,22,18,14,19,14,1,92,71,49,30.10,29.93,29.84,10,4,0,24,17,31,0.10,7,Fog-Snow,117
2013-2-21,19,15,11,16,13,8,92,85,77,30.06,29.90,29.81,10,2,0,18,10,25,0.16,8,Fog-Snow,49
2013-2-22,31,16,1,21,10,-1,95,82,69,30.12,30.06,29.90,10,9,5,13,7,15,0.00,3,,281
2013-2-23,36,22,7,26,16,4,92,74,56,30.00,29.85,29.72,10,8,2,36,5,76,0.00,2,,210
2013-2-24,34,27,20,29,26,18,92,81,69,30.13,29.97,29.75,10,6,1,29,12,79,0.04,8,Snow,16
2013-2-25,36,24,12,27,20,7,96,78,59,30.16,30.07,29.99,10,10,10,18,9,28,0.00,2,,327
2013-2-26,37,22,6,22,13,1,88,70,52,30.09,29.98,29.90,10,10,10,16,7,21,0.00,0,,322
2013-2-27,38,32,25,27,23,18,85,70,54,30.28,30.20,30.04,10,10,10,29,15,35,0.00,2,,330
2013-2-28,42,29,16,27,20,10,85,64,43,30.33,30.26,30.16,10,10,10,17,10,21,0.00,3,,310